USA 215 - Orbit

View from above orbital plane
View from above orbital plane
View from above satellite
View from above satellite

Ground track
Ground track

The orbit data is extracted from the following two-line orbital elements,

1 37162U 10046A   13160.92409444 0.00000000  00000-0  00000-0 0    00
2 37162 122.9923 298.7863 0003000  11.3074 348.6926 13.41472834    06
Epoch (UTC): 09 June 2013 22:10:41
Eccentricity: 0.0003000
inclination: 122.9923°
perigee height: 1101 km
apogee height: 1106 km
right ascension of ascending node: 298.7863°
argument of perigee: 11.3074°
revolutions per day: 13.41472834
mean anomaly at epoch: 348.6926°
orbit number at epoch: 0

The dashed part of the orbit path shows where the satellite is in the earth's shadow,  

Developed and maintained by Chris Peat, Heavens-Above GmbH. Please read the updated FAQ before sending e-mail. Imprint. DLR